Notices

What's New in latest Release from April 7th, 2021:

- Updated Glossary, including Speed of Maximum Gust, and Total Hourly Precipitation

- Updated national and regional climate services offices contacts and prices information

- Addition of station inventory lists for 1981-2010, 1971-2000, and 1961-1990 Normals.

If you haven't already, please take our survey and provide feedback about our website: https://eccc.sondage-survey.ca/f/LanguageSelection.aspx?s=442ca660-fcf1-47c0-95a9-59707d6fd709

Hourly Data Report for May 12, 2021

FORT GOOD HOPE CS
NORTHWEST TERRITORIES
Current Station Operator: ECCC - MSC

66°14'32.044" N
128°38'39.081" W
81.70 m
2201450
71491
ZGH

Download Data

Hourly Data (May 2021)
Hourly Data Report for May 12, 2021
TIME
LST
Temp Definition
°C
Dew Point Definition
°C
Rel Hum Definition
%
Precip. Amount Definition
mm

Wind Dir Definition
10's deg

Wind Spd Definition
km/h
Visibility Definition
km
Stn Press Definition
kPa
Hmdx Definition


Wind Chill Definition


Weather Definition


00:00 5.3 0.2 69 0.2 3 7   100.54     LegendNANA
01:00 4.4 0.3 75 0.0 1 6   100.57     LegendNANA
02:00 4.2 0.0 74 0.0 2 6   100.60     LegendNANA
03:00 3.0 -0.4 78 0.0 1 8   100.65     LegendNANA
04:00 2.4 -0.3 82 0.0 1 8   100.69     LegendNANA
05:00 2.2 -0.2 84 0.0 34 7   100.76     LegendNANA
06:00 2.8 0.4 84 0.0 36 7   100.80     LegendNANA
07:00 2.2 0.5 89 0.0 34 6   100.85     LegendNANA
08:00 1.9 0.7 92 0.0 35 7   100.90     LegendNANA
09:00 2.3 1.6 95 0.0 36 7   100.96     LegendNANA
10:00 2.3 1.4 94 0.0 36 8   101.01     LegendNANA
11:00 3.1 1.0 86 0.0 1 10   101.06     LegendNANA
12:00 3.2 0.5 82 0.0 2 10   101.12     LegendNANA
13:00 3.6 0.0 77 0.0 36 10   101.18     LegendNANA
14:00 3.7 -0.7 73 0.0 36 9   101.23     LegendNANA
15:00 5.3 -2.3 58 0.0 1 12   101.30     LegendNANA
16:00 5.3 -3.2 54 0.0 36 13   101.35     LegendNANA
17:00 4.7 -4.1 53 0.0 3 11   101.41     LegendNANA
18:00 4.5 -4.2 53 0.0 4 10   101.46     LegendNANA
19:00 4.3 -3.8 56 0.0 8 11   101.49     LegendNANA
20:00 3.1 -3.0 64 0.0 7 13   101.53     LegendNANA
21:00 2.8 -3.3 64 0.0 6 9   101.58     LegendNANA
22:00 2.2 -3.4 66 0.0 5 5   101.63     LegendNANA
23:00 1.9 -3.2 69 0.0 4 4   101.67     LegendNANA

Notes on Data Quality.

Legend

  • E = Estimated
  • M = Missing
  • NA = Not Available*
  • [empty] = Indicates an unobserved value
Date modified: